Welcome to Bucharest LROP 162130Z 36006KT CAVOK 21/15 Q1016 NOSIG

Down the Danube 6

63

arrivals

43

departures

16z-22z

6 hours full ATC

 

Please note!

This website is intended for flight simulation only. Information presented here should not be used in real life flight situations.